GEFSMW_con_probscp_192.txt.gz
Probability
28 30 31 33 41 49 53 50 46 40 33 28 25 23 21 21 21 23 24 22 19 17 15 14 15 14 11 8 6 4 2 3 4 4 3 3 5 7 8 7 7 7 9
33 36 35 34 41 51 55 53 50 44 37 30 24 20 19 19 20 24 28 29 28 25 20 18 18 16 14 11 8 6 4 3 4 4 3 1 2 3 4 6 7 8 10
38 41 39 34 40 50 55 54 53 51 44 34 25 22 23 23 23 27 31 35 37 34 29 24 22 19 17 15 12 9 7 5 3 3 2 1 1 0 1 4 6 8 11
38 42 40 36 38 45 50 53 54 54 50 40 31 28 28 28 28 30 32 36 39 38 34 31 27 23 19 17 14 10 8 7 4 2 3 3 3 2 1 2 4 7 9
36 40 41 39 38 41 48 53 55 56 54 46 37 33 29 25 25 30 35 39 40 38 36 35 33 29 22 19 18 14 10 9 5 3 3 4 5 4 3 2 3 5 7
37 40 43 44 42 42 47 53 57 58 55 47 41 37 32 25 22 27 34 38 37 37 38 38 37 32 24 22 23 20 15 12 8 5 4 3 4 4 4 3 3 5 7
39 43 47 48 48 46 49 55 61 60 53 47 43 40 35 28 24 25 30 33 31 32 38 41 39 31 23 22 25 23 20 17 13 8 5 4 4 5 5 5 5 6 8
38 44 50 52 52 52 53 59 65 63 55 51 48 42 36 31 29 28 30 30 29 30 38 43 38 30 23 20 20 20 19 21 18 13 10 9 8 8 8 8 7 7 7
34 39 46 51 52 54 58 62 68 67 61 56 52 46 40 37 35 33 31 32 32 34 41 44 38 30 25 20 18 16 17 21 22 18 17 15 11 10 10 9 9 7 6
29 35 42 46 49 52 56 62 68 70 65 58 52 47 44 41 38 36 34 35 37 41 46 46 39 33 29 25 20 18 19 22 23 21 20 18 13 10 9 9 10 9 7
26 33 41 46 49 52 54 57 63 67 65 60 53 47 44 41 39 39 40 41 42 45 47 44 40 37 35 32 27 23 22 23 23 21 19 17 15 12 10 10 11 11 10
28 35 46 54 56 56 56 57 59 61 62 61 57 52 48 46 44 46 48 48 47 46 44 42 41 41 41 39 34 28 25 25 24 21 19 17 16 15 14 13 13 13 11
36 42 53 62 63 62 63 63 62 60 60 62 61 58 54 53 53 53 53 53 50 45 43 43 43 43 45 44 39 34 31 29 27 24 22 19 17 16 16 16 16 14 12
47 52 60 66 68 67 68 68 66 64 63 64 66 64 60 59 59 58 57 55 51 47 46 47 46 46 48 45 41 37 34 32 29 25 22 19 15 13 14 14 14 14 12
55 59 65 69 70 69 70 69 67 68 68 69 70 69 65 64 65 65 64 60 55 54 54 54 51 49 46 41 36 36 36 35 30 26 22 16 10 9 8 8 9 10 10
56 61 67 69 69 70 70 69 69 71 73 74 72 71 70 70 71 71 70 68 65 63 61 58 54 48 40 31 28 31 36 35 30 26 22 14 8 6 6 5 4 5 5
49 55 62 66 67 68 70 70 70 73 75 75 73 72 72 72 72 72 73 73 71 66 60 56 53 46 34 24 19 23 31 31 27 24 21 15 10 8 8 7 5 4 3
44 47 54 60 63 65 67 68 68 71 73 72 72 72 72 72 73 72 71 72 69 62 56 53 52 44 30 18 13 16 23 26 23 22 20 17 13 10 9 9 9 7 5
43 44 48 53 58 61 62 64 65 67 68 68 68 69 70 72 73 70 68 68 65 59 54 51 50 44 30 16 9 12 20 23 22 20 19 16 13 9 7 8 10 10 9
45 45 47 50 54 58 60 62 63 64 63 64 64 66 69 71 71 69 67 66 62 56 51 48 48 44 32 17 9 10 18 22 22 20 17 14 9 5 3 4 7 9 10
45 47 49 51 53 55 59 61 63 62 61 60 60 63 66 66 66 67 68 66 61 55 49 45 44 43 32 18 9 8 13 19 20 19 17 11 5 2 1 2 3 5 5
45 47 49 50 50 51 54 58 61 63 62 60 58 57 59 58 59 61 62 62 57 51 45 42 41 39 32 21 10 5 6 11 15 17 15 9 3 0 0 0 1 1 1
44 44 45 46 46 46 48 51 56 60 61 60 56 53 51 51 52 54 55 52 48 44 41 39 38 37 34 26 14 5 2 3 9 12 10 5 1 0 0 0 0 0 0
41 40 39 40 41 42 42 44 49 55 57 56 53 48 45 45 48 49 46 41 36 37 37 37 36 35 33 28 18 9 5 4 5 6 5 3 1 0 1 1 1 0 0
38 38 36 36 37 37 37 39 44 50 53 52 49 45 42 42 44 42 36 30 27 28 30 32 32 30 26 22 16 12 10 8 6 4 4 5 4 3 4 5 4 2 2
37 37 36 34 35 35 34 35 40 47 51 50 47 42 40 41 41 37 29 24 22 22 23 27 28 25 20 15 12 11 10 9 7 5 6 7 7 6 8 8 6 5 4

GEFSMW_con_probscp_198.txt.gz
Probability
18 19 20 20 17 14 12 11 8 5 5 6 5 3 2 1 0 0 1 2 3 4 3 3 3 1 0 0 0 0 0 0 0 0 0 0 0 0 0 0 0 0 0
21 22 23 22 22 19 16 13 10 7 7 8 8 6 4 3 1 0 0 1 3 5 5 4 3 2 0 0 0 0 0 0 0 0 0 0 0 0 0 0 0 0 0
24 25 25 25 25 24 19 15 11 10 10 10 9 8 7 5 2 0 0 1 3 5 5 4 3 1 0 0 0 0 0 0 0 0 0 0 0 0 0 0 0 0 0
26 26 27 27 26 25 21 16 13 12 12 10 9 8 8 6 3 1 0 0 2 3 4 4 3 2 1 1 1 0 0 0 0 0 0 0 0 0 0 0 0 0 0
30 29 30 29 27 27 26 22 17 14 14 11 8 7 7 6 4 1 0 1 2 2 3 5 5 5 4 3 2 1 0 0 0 0 0 0 0 0 0 0 0 0 0
33 33 34 33 31 33 34 30 23 19 16 14 10 9 9 8 6 4 3 3 4 3 4 6 7 8 9 7 3 1 0 0 0 0 0 0 0 0 0 0 0 0 0
32 33 34 35 36 38 40 37 31 25 21 17 14 13 12 11 9 7 7 7 6 5 5 7 9 11 12 10 5 2 2 2 2 1 1 0 0 0 0 0 0 0 0
28 29 30 32 36 41 43 42 37 31 26 21 17 16 16 14 10 8 9 9 8 8 8 11 13 14 14 12 8 5 4 4 4 3 2 1 0 0 0 0 0 0 0
25 28 28 30 36 42 43 43 41 36 31 26 21 18 17 15 12 9 9 10 10 10 12 15 16 15 14 13 11 9 7 7 6 4 2 1 0 0 0 1 1 1 1
25 29 32 34 39 43 46 45 43 39 35 30 23 18 16 14 12 11 11 12 12 14 17 18 17 15 13 13 13 11 9 8 7 5 3 1 1 1 1 2 3 3 3
27 31 37 41 44 47 48 47 42 38 35 31 25 20 17 13 11 11 13 14 16 19 22 22 18 15 14 15 15 12 9 8 7 6 4 3 2 2 2 2 3 3 3
29 32 39 46 49 50 49 47 40 36 34 33 29 25 21 17 14 13 13 16 19 22 24 24 21 18 17 19 18 15 11 9 8 6 5 4 3 3 2 1 1 1 1
30 34 41 47 51 51 51 48 42 38 36 34 32 29 27 25 22 20 17 17 19 20 22 23 22 22 22 22 21 18 14 11 10 8 7 6 5 4 2 1 1 1 1
30 34 41 45 48 50 50 49 46 43 40 36 33 32 30 28 27 25 21 18 17 17 19 22 23 24 25 23 20 19 17 15 13 11 11 9 7 5 3 3 2 2 2
32 35 40 44 45 46 47 47 46 45 43 39 35 34 32 31 30 28 24 20 17 17 18 21 22 23 23 20 18 18 20 18 15 13 12 11 8 6 4 3 3 3 4
35 38 41 42 41 41 41 41 41 43 44 44 40 38 38 38 37 35 30 25 21 21 21 21 21 21 20 17 15 16 18 18 16 13 11 10 9 7 5 4 3 3 3
36 38 39 38 37 37 36 36 37 38 42 44 43 44 44 44 43 42 37 30 27 27 27 26 25 22 19 16 13 13 14 15 14 11 9 8 8 7 6 4 3 2 2
33 34 34 33 32 34 36 37 38 38 39 39 40 43 46 46 45 43 39 34 32 32 31 30 28 24 18 14 10 10 12 12 10 9 8 6 4 5 5 4 3 3 2
30 30 31 30 31 34 38 39 39 38 37 34 34 38 43 45 44 43 41 39 36 33 31 31 30 26 20 13 8 9 11 11 9 7 6 4 2 2 3 3 3 3 3
28 28 29 30 31 33 36 37 36 34 32 30 30 33 36 38 40 41 42 43 40 35 30 31 32 29 22 14 7 7 10 11 10 8 7 5 2 1 1 1 2 2 2
26 25 26 27 30 31 34 34 31 28 25 26 27 28 29 31 33 35 39 42 41 35 31 30 30 28 23 14 6 4 7 10 9 8 8 6 2 1 0 0 1 1 1
23 21 20 22 24 27 30 30 26 22 20 21 23 23 25 26 27 30 34 39 38 35 32 30 27 25 23 15 5 2 4 7 7 6 7 5 2 0 0 0 0 0 0
22 19 17 17 20 22 25 25 21 17 16 17 19 21 23 23 23 27 32 35 35 33 32 30 27 24 22 16 7 2 1 3 4 4 5 4 1 0 0 0 0 0 1
21 20 18 18 18 19 20 19 17 15 15 16 18 21 22 21 21 24 28 30 31 30 29 28 25 23 22 20 14 8 3 2 2 3 3 2 0 0 0 0 0 1 2
19 18 18 18 18 18 17 17 17 16 17 18 19 20 20 19 19 19 21 23 24 23 22 21 20 21 22 20 18 12 7 4 3 3 2 1 1 1 1 2 2 2 3
17 16 16 16 17 18 17 17 18 18 19 19 19 19 18 18 18 17 16 17 18 16 15 14 15 18 19 17 15 11 7 6 5 4 3 2 2 2 2 3 3 3 3

GEFSMW_con_probscp_204.txt.gz
Probability
0 1 1 1 0 0 0 0 0 0 0 0 0 0 0 0 0 0 0 0 0 0 0 0 0 0 0 0 0 0 0 0 0 0 0 0 0 0 0 0 0 0 0
1 2 2 2 1 0 0 0 0 0 0 0 0 0 0 0 0 0 0 0 0 0 0 0 0 0 0 0 1 1 0 1 1 1 0 0 0 0 0 0 0 0 0
2 2 3 4 3 1 0 0 0 0 0 0 0 0 0 0 0 0 0 0 0 0 0 0 0 0 1 1 2 2 2 2 2 2 1 1 1 1 0 0 0 0 0
2 2 5 7 6 4 2 1 1 1 0 0 0 1 1 1 1 0 0 0 0 0 1 1 0 1 2 2 3 3 3 3 3 3 3 2 2 1 0 0 0 0 0
1 3 7 10 10 9 6 4 3 2 1 0 1 2 3 3 2 1 1 0 0 0 2 2 1 1 3 3 3 3 3 3 3 3 3 3 2 1 0 0 0 0 0
1 4 10 13 15 14 12 9 6 4 2 1 1 2 3 3 3 3 2 1 1 1 2 2 2 2 4 5 4 4 4 3 3 3 4 4 3 2 1 1 0 0 0
3 8 15 18 19 19 16 13 10 6 2 2 2 2 2 3 3 4 3 3 3 3 4 4 4 4 6 6 5 5 5 4 3 4 5 5 5 5 4 3 1 0 0
7 11 18 21 21 21 19 16 14 10 6 4 3 3 2 2 3 4 3 3 4 5 5 6 7 7 6 5 5 6 5 4 3 3 4 5 5 5 5 4 2 0 0
9 11 17 20 20 21 22 21 19 15 12 8 5 3 3 3 3 3 3 4 5 6 6 6 7 8 7 6 7 7 6 5 4 3 3 4 3 2 2 1 1 0 0
10 13 18 22 22 23 25 25 23 19 17 14 10 6 5 4 3 2 2 4 5 6 6 6 7 8 9 9 9 9 8 7 6 4 3 3 3 1 0 0 0 0 0
12 16 23 27 27 26 27 28 26 23 20 18 15 12 8 5 3 2 2 3 4 5 6 7 9 9 9 9 9 9 10 10 8 6 4 4 4 3 2 2 2 1 1
17 20 25 29 29 28 29 30 28 25 22 20 19 16 12 9 6 4 4 4 4 6 8 9 10 10 10 9 8 9 12 13 12 8 6 6 5 5 5 5 5 5 3
19 20 21 25 27 30 33 33 30 26 24 24 23 20 16 13 10 8 8 8 9 11 12 11 11 12 11 10 10 11 13 15 14 10 7 7 7 7 7 8 8 7 6
19 17 16 19 24 31 35 36 32 29 29 29 27 22 18 15 14 13 12 13 15 16 16 15 14 14 13 13 12 12 13 14 12 9 8 9 9 9 9 9 9 8 7
22 19 16 17 23 30 36 37 34 31 31 31 29 24 18 15 16 17 18 18 17 17 17 17 16 16 15 14 12 12 12 11 10 9 10 11 12 11 10 10 9 8 8
24 21 19 20 24 29 34 36 33 30 28 28 28 25 19 17 18 19 20 20 18 17 17 17 17 17 16 13 10 9 11 11 11 10 11 12 13 12 11 9 8 7 7
20 19 19 22 25 28 30 31 31 29 26 25 24 23 20 17 18 20 20 20 20 19 20 19 19 18 16 12 6 6 9 12 11 11 11 12 12 12 11 9 7 5 4
16 16 17 20 24 26 26 26 27 29 27 23 21 21 20 19 18 18 17 19 20 21 22 22 21 20 16 10 4 4 9 11 10 9 10 10 10 9 9 7 5 3 2
13 14 16 20 23 25 24 23 25 27 25 22 21 22 23 23 20 17 17 19 19 20 20 21 23 22 17 10 4 4 9 10 9 7 7 7 6 5 4 4 3 2 1
10 12 16 19 21 21 22 23 26 26 24 22 23 25 26 25 22 20 20 20 20 19 17 17 20 19 16 10 4 4 10 12 10 6 3 3 3 1 1 2 2 1 2
9 11 14 16 18 18 20 23 24 23 22 22 24 25 24 21 19 20 21 21 20 18 15 14 15 14 11 8 3 3 10 15 15 10 5 2 1 0 0 1 1 2 2
7 7 10 14 16 17 18 19 18 18 18 19 21 21 19 16 15 16 18 19 19 18 16 14 12 11 9 7 4 2 5 12 16 16 11 4 1 0 0 0 1 1 1
6 6 9 13 14 14 15 14 12 11 12 14 14 14 14 14 13 14 14 16 18 17 16 15 14 13 11 8 5 2 2 5 11 14 11 4 1 0 0 0 0 0 0
8 8 10 12 12 11 11 10 8 7 8 9 9 9 10 11 12 12 12 14 16 17 16 16 16 15 12 10 8 7 4 3 5 8 7 3 1 0 0 0 0 0 0
11 12 12 11 11 10 9 8 6 5 6 7 6 6 7 8 9 9 8 10 13 14 15 16 17 15 11 9 9 10 9 5 4 4 4 3 3 2 2 2 2 0 0
12 13 12 11 10 10 10 9 6 5 5 5 5 6 6 6 7 5 5 6 9 12 13 14 17 15 11 9 8 9 9 6 3 2 2 4 5 4 4 5 3 1 0

GEFSMW_con_probscp_210.txt.gz
Probability
2 3 3 3 5 7 5 2 1 1 1 0 0 0 0 0 0 0 1 2 2 2 2 1 0 0 1 1 2 5 8 8 5 2 0 0 0 1 0 0 0 0 0
4 4 4 5 6 7 6 4 3 2 1 0 1 1 0 0 0 0 0 1 1 1 1 2 1 1 1 2 4 7 9 8 6 4 2 1 1 1 0 0 0 0 0
5 6 8 9 10 9 9 8 8 7 5 3 3 2 1 0 1 1 1 1 1 0 1 3 3 3 3 5 7 9 10 10 9 9 7 4 2 1 1 1 1 1 1
6 7 10 13 14 13 13 13 11 10 9 8 5 3 1 1 2 2 3 2 1 1 2 4 6 8 8 8 8 8 9 11 12 12 11 9 6 5 4 3 2 3 3
5 7 11 14 16 16 17 16 13 11 10 8 5 4 3 3 3 4 4 4 3 3 3 4 8 9 8 8 8 7 8 11 13 13 13 12 11 9 8 6 5 4 5
6 8 11 15 17 19 19 18 17 16 13 9 6 6 5 5 5 5 6 6 5 4 3 4 6 6 4 4 5 6 8 10 12 12 12 12 12 12 11 9 8 7 6
8 12 15 18 21 22 22 23 25 24 20 16 14 12 10 8 6 6 6 7 6 5 4 4 4 3 2 2 4 6 10 12 13 12 10 9 9 10 11 10 9 8 7
11 15 20 22 24 25 26 30 35 34 29 25 24 22 17 11 7 7 7 8 8 7 6 6 5 4 3 4 6 8 12 15 15 14 11 9 8 9 9 8 7 6 5
12 16 21 25 27 29 31 36 42 43 39 32 29 26 21 15 11 11 11 11 11 12 11 9 7 6 6 7 9 11 13 16 18 17 16 14 12 10 10 8 7 5 4
15 17 20 23 27 31 36 40 45 47 44 38 31 26 23 20 18 17 16 16 15 15 15 12 9 8 8 10 12 13 14 17 19 21 21 19 16 15 14 12 10 9 8
21 22 22 24 27 33 40 45 47 47 45 40 35 30 28 25 22 21 20 19 18 17 17 16 13 11 11 11 13 15 15 17 20 23 24 22 21 21 20 17 15 14 13
25 25 26 28 33 38 45 50 51 48 43 40 37 35 33 28 22 20 21 22 21 19 18 19 18 15 14 14 15 17 18 18 20 23 25 25 26 27 24 21 17 16 16
30 30 31 34 40 43 47 50 51 47 42 39 37 36 35 30 23 21 23 26 24 20 20 22 22 20 18 17 18 21 22 20 19 22 24 26 29 31 28 24 20 18 18
35 35 35 38 44 48 50 50 49 47 44 41 38 36 36 34 29 27 28 30 27 22 22 24 24 23 20 19 21 23 22 21 21 22 23 24 28 29 27 25 22 21 21
33 34 35 39 45 50 53 52 50 48 47 43 39 38 38 39 37 35 33 33 31 26 25 26 27 26 22 19 20 21 21 22 25 27 27 25 25 24 21 19 20 21 21
30 31 32 35 40 44 48 50 49 48 46 43 41 40 41 42 42 40 36 35 34 32 31 30 30 28 22 16 14 17 22 26 29 33 31 27 25 22 17 13 13 14 15
31 30 29 30 33 37 40 43 44 43 43 42 41 41 41 41 42 41 40 38 37 38 37 35 34 32 23 13 8 12 21 28 32 34 34 30 28 26 20 13 10 9 9
27 27 26 26 29 32 35 38 39 39 40 40 39 38 39 40 41 40 40 39 39 41 40 38 37 35 26 14 6 10 21 31 33 34 34 32 30 27 22 17 15 14 13
23 24 25 26 28 31 34 34 36 36 36 36 35 36 38 40 39 37 35 35 37 37 37 37 36 34 27 14 5 8 22 33 35 35 33 29 26 23 18 19 23 24 22
23 24 26 26 28 32 33 32 33 34 33 33 34 35 37 37 35 33 31 30 31 30 30 31 31 30 25 14 4 7 20 32 38 39 34 26 20 15 13 19 28 29 27
23 25 27 28 30 32 32 31 32 33 33 34 35 35 35 33 31 29 28 26 25 25 25 26 26 24 22 16 6 5 15 26 36 40 37 28 17 8 7 13 23 25 23
20 23 27 30 31 30 30 31 32 34 35 36 36 34 32 30 29 28 25 24 23 23 23 23 23 22 22 16 7 3 8 18 28 34 33 25 12 3 2 5 11 13 12
18 20 24 27 26 26 27 29 31 34 35 34 33 32 30 28 28 27 22 21 22 22 22 22 22 23 21 17 10 4 3 8 16 22 21 14 6 2 2 2 3 5 8
18 18 20 20 22 24 25 27 30 33 33 32 31 31 29 27 28 26 21 19 20 20 19 19 20 21 20 17 15 11 6 4 7 11 12 8 5 6 7 6 5 7 10
16 16 15 16 20 24 24 25 30 33 33 31 31 30 28 26 25 23 18 15 15 14 13 13 15 16 15 14 14 13 10 6 5 8 10 11 11 12 13 11 11 13 13
13 12 11 14 20 23 23 25 29 33 33 31 30 28 26 25 23 19 14 10 9 9 8 8 10 12 11 10 10 11 10 7 6 9 12 15 16 16 14 13 15 17 17

GEFSMW_con_probscp_216.txt.gz
Probability
26 26 24 23 28 34 34 30 26 22 17 12 8 5 4 2 1 2 4 6 6 6 9 12 14 15 14 12 11 11 11 13 16 15 10 6 7 9 12 12 10 10 10
33 35 33 29 32 38 39 36 31 27 20 14 9 6 4 4 3 5 8 10 9 7 8 11 13 14 14 14 14 13 13 13 14 14 11 8 6 7 8 10 12 12 12
41 45 43 39 40 43 43 41 40 36 28 20 12 7 7 7 7 7 11 14 12 9 9 11 12 12 13 16 18 16 14 13 13 13 14 12 9 6 6 8 11 13 13
41 45 46 43 42 42 42 45 49 46 39 29 19 13 11 10 9 8 11 16 16 13 12 14 14 13 12 14 16 17 14 12 11 14 16 16 14 11 8 7 8 10 12
37 41 44 43 41 40 41 48 55 54 47 38 29 22 15 12 12 11 13 18 20 17 14 16 19 17 13 12 13 14 13 10 9 12 15 17 17 15 12 9 7 8 10
34 38 44 45 42 41 44 52 58 57 51 43 37 31 23 18 18 18 19 21 23 22 18 19 23 20 15 12 12 12 11 9 8 11 13 16 17 16 13 10 7 7 9
35 41 48 51 48 45 49 57 62 60 55 48 43 38 33 27 25 25 24 22 22 23 23 24 25 22 16 13 13 12 11 10 11 12 14 16 17 15 12 10 8 7 7
38 44 51 54 53 52 55 63 68 66 59 52 47 43 39 32 28 27 25 22 20 22 25 26 26 23 18 14 14 13 12 12 14 14 15 16 16 15 13 12 9 7 6
38 45 50 52 55 59 62 68 73 71 64 56 51 46 41 35 30 28 26 23 22 23 26 28 28 25 21 18 17 16 15 16 17 16 17 18 16 15 17 16 13 10 9
37 42 47 49 53 60 65 70 75 74 67 61 55 51 48 43 36 30 28 26 27 29 31 31 30 28 26 23 21 20 18 18 19 19 21 22 21 20 21 20 18 16 16
36 41 46 49 53 59 65 71 75 74 68 64 61 57 56 52 43 37 35 35 36 36 36 34 31 30 28 26 25 24 22 20 20 20 22 24 25 25 25 25 24 23 23
36 41 47 52 54 58 64 71 73 70 67 65 65 62 60 56 50 46 48 48 47 46 43 38 34 29 27 28 28 27 25 23 22 21 22 24 26 27 27 28 28 27 25
39 42 48 53 58 61 65 68 68 66 64 64 64 64 62 59 56 54 55 56 54 52 48 45 39 31 27 27 29 29 27 24 23 23 23 24 26 27 27 28 30 28 24
46 48 52 56 61 65 65 65 64 63 63 63 63 63 60 57 57 57 56 55 53 51 49 47 43 35 28 27 29 29 27 25 24 24 25 26 26 27 26 27 29 28 25
51 53 56 60 64 67 66 64 63 62 63 63 63 60 54 51 53 55 53 51 50 49 49 48 45 38 30 25 27 30 29 29 29 28 27 28 26 24 24 25 27 28 28
48 51 54 58 63 66 65 63 60 59 59 60 59 57 52 50 50 50 49 48 49 51 51 49 46 41 32 24 21 26 31 33 34 34 31 28 25 23 23 22 22 23 23
44 45 46 51 58 61 59 57 56 55 55 55 55 54 53 52 49 45 44 46 48 51 52 50 49 45 37 25 18 20 28 32 35 37 35 30 26 27 27 24 20 18 16
39 39 41 46 52 53 51 50 52 52 51 51 51 52 51 51 49 44 42 44 47 49 49 49 49 47 40 28 17 16 24 31 36 38 38 36 32 29 30 28 25 21 18
35 36 38 43 47 48 46 45 47 47 45 45 47 48 48 48 49 46 43 42 43 45 45 46 46 45 38 26 14 13 22 32 37 40 40 38 33 26 24 27 29 29 26
35 36 37 39 43 45 45 45 44 43 41 42 43 45 46 47 48 46 42 39 39 40 40 39 38 37 33 24 12 11 22 32 36 40 39 33 25 17 15 20 27 29 29
38 38 38 38 40 42 44 45 44 42 41 41 42 43 43 43 43 43 39 37 36 35 34 33 32 31 29 22 10 8 18 27 32 35 34 25 15 8 6 11 18 22 23
37 36 37 37 38 41 42 42 43 42 39 39 41 42 41 38 38 39 37 36 35 31 30 30 28 27 26 20 10 5 10 18 24 28 26 19 9 3 1 4 8 11 12
31 31 33 35 36 38 39 41 44 43 38 38 41 42 40 38 38 36 32 31 31 28 26 26 25 24 23 20 14 7 5 8 14 18 16 10 5 2 1 2 4 6 9
29 28 29 31 32 34 36 40 45 44 39 38 40 40 38 39 39 34 26 24 25 25 23 22 22 22 21 20 17 12 8 8 9 10 9 6 3 2 4 6 6 8 12
30 29 29 30 31 33 35 38 43 43 39 38 37 34 31 32 33 28 20 18 18 17 16 15 16 18 17 15 13 13 13 11 9 8 9 8 6 5 8 11 12 13 14
31 30 31 32 33 34 35 38 41 41 39 36 34 29 26 27 27 21 14 12 12 10 9 9 11 13 12 10 10 11 13 12 9 8 9 10 8 7 9 12 14 14 14

GEFSMW_con_probscp_222.txt.gz
Probability
17 20 22 20 18 16 12 8 5 3 2 2 1 0 0 0 0 0 0 0 0 0 0 0 0 0 0 0 0 0 1 1 1 1 1 0 0 0 1 2 2 2 3
19 22 23 23 21 20 15 10 6 3 1 1 0 0 0 0 0 0 0 0 0 0 0 0 0 0 0 0 0 0 0 0 0 0 0 0 0 0 0 1 1 1 2
22 23 25 27 27 25 21 15 10 7 3 1 0 0 0 0 0 0 0 0 0 0 0 0 0 0 0 0 0 0 0 0 0 0 0 0 0 0 0 0 0 0 1
24 24 26 30 31 29 26 21 18 15 10 5 2 0 0 0 0 0 0 0 0 0 0 0 0 1 2 1 1 0 0 0 0 0 0 1 0 0 0 0 0 0 0
24 25 28 31 31 29 28 27 25 22 17 12 8 4 1 0 0 0 0 0 0 0 0 1 2 3 4 3 2 1 1 1 1 0 1 1 1 0 0 0 0 0 0
24 24 27 30 31 30 30 31 30 27 23 19 15 10 4 1 0 0 0 0 1 1 1 3 5 7 8 6 4 3 2 3 2 2 2 2 1 1 0 0 0 0 0
26 24 24 27 30 33 34 35 34 31 27 23 19 15 10 5 3 2 2 2 2 2 3 5 8 10 10 7 4 3 4 5 5 4 3 3 2 1 0 0 0 0 0
29 27 24 24 28 34 39 41 38 34 30 26 21 17 14 11 7 6 6 5 4 5 6 8 9 9 9 6 4 4 5 6 7 5 4 4 3 1 0 0 0 0 0
29 28 24 23 27 34 40 44 43 40 36 31 25 20 17 15 13 11 10 9 8 9 10 11 10 8 7 6 5 5 6 7 8 7 6 5 4 2 1 1 1 1 1
26 25 23 24 30 36 42 46 47 45 41 35 29 24 20 18 16 16 15 13 13 14 15 14 11 8 6 5 6 7 8 9 10 9 7 7 7 6 4 3 3 4 4
23 22 23 27 34 41 47 49 49 48 45 40 34 29 25 22 20 20 19 17 16 16 16 14 12 9 7 6 7 8 10 10 10 9 8 8 9 9 8 7 7 8 7
26 25 28 32 38 44 49 51 52 52 51 48 43 37 33 29 27 25 21 17 16 16 16 15 13 11 10 10 9 9 11 10 8 8 8 8 9 10 10 10 10 10 10
29 30 34 38 42 45 47 49 52 54 56 54 48 42 40 39 36 31 24 19 17 16 18 19 17 15 15 15 12 11 11 10 8 8 8 8 9 9 8 8 9 9 9
31 33 36 39 41 42 43 44 48 52 54 52 48 44 43 43 41 36 30 25 21 20 21 21 20 19 20 20 17 14 13 11 9 8 8 8 8 7 6 6 6 7 7
30 32 33 33 34 34 36 41 45 48 51 51 49 44 41 40 40 38 34 30 27 25 24 22 20 21 22 22 18 16 14 12 10 8 8 8 8 6 4 4 5 5 5
27 28 27 27 27 29 33 38 42 44 47 48 46 40 37 37 39 39 37 33 30 29 26 24 22 21 21 18 14 14 16 14 11 10 9 9 8 6 4 3 3 3 3
22 24 25 25 26 29 33 34 35 38 40 41 39 35 33 34 37 39 37 32 29 28 27 26 26 24 18 12 8 10 15 15 12 12 12 10 9 8 6 4 3 3 3
17 20 23 25 27 29 31 32 32 33 35 35 34 31 29 30 32 33 31 28 25 24 24 26 28 25 16 7 4 6 11 13 13 13 12 11 10 9 7 5 4 4 4
16 18 20 22 25 28 31 32 32 31 32 32 30 28 26 25 26 26 25 22 20 20 21 24 26 24 14 5 2 4 8 11 11 11 10 11 10 8 6 5 6 5 5
20 21 21 21 22 26 29 30 29 29 30 30 27 25 25 23 22 21 20 18 17 18 20 22 22 19 12 6 3 5 9 11 10 8 8 9 9 5 3 4 6 7 6
24 23 22 22 23 24 26 27 28 29 31 31 28 25 23 22 20 17 16 16 16 17 19 19 17 14 11 7 4 5 8 10 9 8 8 9 6 2 1 3 6 7 6
21 21 21 22 24 25 26 27 28 28 30 31 29 24 20 18 15 14 14 13 14 15 17 16 14 12 11 8 4 3 5 8 9 9 10 9 4 0 0 1 3 4 3
17 18 18 20 21 22 23 24 23 22 23 25 25 20 16 13 12 12 13 12 12 13 15 15 14 13 12 9 6 2 2 5 8 8 9 7 3 1 0 0 1 1 2
16 16 16 16 15 16 19 18 16 14 15 17 18 17 15 13 12 12 12 11 10 11 13 14 14 14 13 10 8 5 4 4 6 7 7 5 3 1 1 1 0 1 2
15 15 14 14 13 13 13 12 10 10 11 12 14 16 15 13 11 10 10 9 8 9 10 11 12 12 11 8 7 7 6 5 5 6 6 5 4 4 3 2 0 0 1
15 15 14 13 12 11 9 7 6 7 8 10 12 15 15 12 9 9 8 7 6 7 8 8 9 8 7 5 5 5 6 5 4 5 6 7 7 6 6 3 1 0 0